Weather History for Ahoskie, NC

Change the Weather History Date:

Wednesday, January 23, 2013

  Actual Average (KEMV) Record (KEMV)
Temperature  
Mean Temperature 25 °F -  
Max Temperature 35 °F 47 °F 70 °F (1986)
Min Temperature 15 °F 24 °F 8 °F (2014)
Degree Days  
Heating Degree Days 40    
Moisture  
Dew Point 8 °F    
Average Humidity 50    
Maximum Humidity 83    
Minimum Humidity 20    
Precipitation  
Precipitation 0.00 in - - ()
Sea Level Pressure  
Sea Level Pressure 30.28 in    
Wind  
Wind Speed 1 mph (South)    
Max Wind Speed 5 mph    
Max Gust Speed -    
Visibility 10 miles    
Events      
Averages and records for this station are not official NWS values.
T = Trace of Precipitation, MM = Missing Value Source: NWS Daily Summary

Daily Weather History Graph

Daily Weather History Graph

Search for Another Location

Airport:

Trip Planner

Search our weather history database for the weather conditions in past years. The results will help you decide how hot, cold, wet, or windy it might be!

Date:

Astronomy

Jan. 23, 2013 Rise Set
Actual Time 7:15 AM EST 5:25 PM EST
Civil Twilight 6:48 AM EST 5:53 PM EST
Nautical Twilight 6:17 AM EST 6:24 PM EST
Astronomical Twilight 5:46 AM EST 6:55 PM EST
Moon 2:35 PM EST (1/23) 4:24 AM EST (1/23)
Length of Visible Light 11h 05m
Length of Day
10h 10m
Waxing Gibbous, 89% of the Moon is Illuminated
Jan 23
Waxing Gibbous
Jan 26
Full
Feb 3
Last Quarter
Feb 10
New
Feb 17
First Quarter

Hourly Weather History & Observations

Time (EST) Temp. Windchill Dew Point Humidity Pressure Visibility Wind Dir Wind Speed Gust Speed Precip Events Conditions
12:15 AM 18.0 °F - 10.8 °F 73% 30.30 in 10.0 mi Calm Calm - N/A   Clear
12:55 AM 22.8 °F - 5.5 °F 48% 30.30 in 10.0 mi Calm Calm - N/A   Clear
1:15 AM 21.0 °F - 5.9 °F 52% 30.31 in 10.0 mi Calm Calm - N/A   Clear
1:35 AM 20.7 °F - 3.7 °F 48% 30.31 in 10.0 mi Calm Calm - N/A   Clear
1:55 AM 20.3 °F - 5.0 °F 52% 30.32 in 10.0 mi Calm Calm - N/A   Clear
2:15 AM 19.4 °F - 7.5 °F 60% 30.32 in 10.0 mi Calm Calm - N/A   Clear
2:35 AM 18.1 °F - 8.6 °F 66% 30.32 in 10.0 mi Calm Calm - N/A   Clear
2:55 AM 18.1 °F - 6.8 °F 61% 30.32 in 10.0 mi Calm Calm - N/A   Clear
3:15 AM 18.0 °F - 8.1 °F 65% 30.33 in 10.0 mi Calm Calm - N/A   Scattered Clouds
3:55 AM 19.6 °F - 10.8 °F 69% 30.32 in 10.0 mi Calm Calm - N/A   Overcast
5:15 AM 19.2 °F - 9.0 °F 64% 30.33 in 10.0 mi Calm Calm - N/A   Scattered Clouds
5:35 AM 19.2 °F - 7.9 °F 61% 30.34 in 10.0 mi Calm Calm - N/A   Clear
5:55 AM 17.2 °F - 8.8 °F 69% 30.34 in 10.0 mi Calm Calm - N/A   Clear
6:15 AM 16.7 °F - 9.9 °F 74% 30.35 in 10.0 mi Calm Calm - N/A   Clear
6:35 AM 16.7 °F - 10.4 °F 76% 30.36 in 10.0 mi Calm Calm - N/A   Clear
6:55 AM 16.7 °F - 10.0 °F 75% 30.37 in 10.0 mi Calm Calm - N/A   Clear
7:15 AM 15.8 °F - 10.0 °F 78% 30.36 in 10.0 mi Calm Calm - N/A   Clear
7:35 AM 15.4 °F - 10.6 °F 81% 30.37 in 10.0 mi Calm Calm - N/A   Clear
7:55 AM 16.7 °F - 12.4 °F 83% 30.37 in 10.0 mi Calm Calm - N/A   Clear
8:15 AM 19.0 °F - 13.6 °F 79% 30.38 in 10.0 mi Calm Calm - N/A   Clear
8:55 AM 24.8 °F - 12.7 °F 60% 30.39 in 10.0 mi Calm Calm - N/A   Clear
9:15 AM 25.3 °F - 11.1 °F 55% 30.39 in 10.0 mi Calm Calm - N/A   Clear
9:35 AM 25.3 °F - 8.4 °F 49% 30.39 in 10.0 mi Calm Calm - N/A   Clear
9:55 AM 25.3 °F - 6.6 °F 45% 30.40 in 10.0 mi Calm Calm - N/A   Clear
10:35 AM 28.6 °F 24.8 °F 2.3 °F 33% 30.39 in 10.0 mi WSW 3.5 mph - N/A   Clear
10:55 AM 30.2 °F 26.7 °F 2.3 °F 31% 30.38 in 10.0 mi WNW 3.5 mph - N/A   Clear
11:15 AM 30.2 °F 25.4 °F 0.7 °F 28% 30.37 in 10.0 mi NNW 4.6 mph - N/A   Clear
11:35 AM 30.2 °F 26.7 °F 1.4 °F 29% 30.36 in 10.0 mi West 3.5 mph - N/A   Clear
11:55 AM 30.4 °F 25.6 °F 2.1 °F 30% 30.35 in 10.0 mi WNW 4.6 mph - N/A   Clear
12:15 PM 30.2 °F - -0.0 °F 27% 30.32 in 10.0 mi Calm Calm - N/A   Clear
12:55 PM 32.4 °F - 0.1 °F 25% 30.29 in 10.0 mi Calm Calm - N/A   Clear
1:15 PM 32.5 °F - -2.7 °F 22% 30.27 in 10.0 mi Calm Calm - N/A   Clear
1:35 PM 32.5 °F 29.3 °F -1.3 °F 24% 30.27 in 10.0 mi SW 3.5 mph - N/A   Clear
1:55 PM 33.4 °F 30.4 °F -2.0 °F 22% 30.26 in 10.0 mi SW 3.5 mph - N/A   Clear
2:15 PM 34.9 °F - -1.7 °F 21% 30.26 in 10.0 mi Calm Calm - N/A   Clear
2:55 PM 35.1 °F - -2.2 °F 20% 30.24 in 10.0 mi Calm Calm - N/A   Clear
3:15 PM 35.1 °F - -0.2 °F 22% 30.24 in 10.0 mi Calm Calm - N/A   Clear
3:35 PM 33.3 °F - 3.0 °F 28% 30.24 in 10.0 mi Calm Calm - N/A   Clear
3:55 PM 33.3 °F - 4.5 °F 30% 30.25 in 10.0 mi Calm Calm - N/A   Clear
4:15 PM 32.9 °F - 2.5 °F 28% 30.24 in 10.0 mi Calm Calm - N/A   Clear
4:55 PM 32.5 °F - 2.7 °F 28% 30.23 in 10.0 mi Calm Calm - N/A   Clear
5:15 PM 32.5 °F - 3.4 °F 29% 30.23 in 10.0 mi Calm Calm - N/A   Clear
5:35 PM 30.2 °F - 4.1 °F 33% 30.24 in 10.0 mi Calm Calm - N/A   Clear
5:55 PM 30.2 °F - 5.4 °F 35% 30.24 in 10.0 mi Calm Calm - N/A   Clear
6:15 PM 27.9 °F - 9.7 °F 47% 30.23 in 10.0 mi Calm Calm - N/A   Scattered Clouds
6:55 PM 27.0 °F - 13.5 °F 57% 30.22 in 10.0 mi Calm Calm - N/A   Scattered Clouds
7:15 PM 26.2 °F - 12.7 °F 57% 30.21 in 10.0 mi Calm Calm - N/A   Scattered Clouds
7:35 PM 26.8 °F - 12.2 °F 54% 30.20 in 10.0 mi Calm Calm - N/A   Scattered Clouds
7:55 PM 25.3 °F 19.7 °F 16.0 °F 68% 30.20 in 10.0 mi SSE 4.6 mph - N/A   Clear
8:15 PM 26.6 °F - 14.5 °F 60% 30.19 in 10.0 mi Calm Calm - N/A   Scattered Clouds
8:35 PM 26.1 °F - 14.4 °F 61% 30.19 in 10.0 mi Calm Calm - N/A   Mostly Cloudy
8:55 PM 26.1 °F 21.9 °F 15.4 °F 64% 30.18 in 10.0 mi SSE 3.5 mph - N/A   Overcast
9:15 PM 27.1 °F 23.2 °F 15.4 °F 61% 30.18 in 10.0 mi South 3.5 mph - N/A   Overcast
9:35 PM 28.9 °F 25.2 °F 15.8 °F 58% 30.17 in 10.0 mi South 3.5 mph - N/A   Overcast
9:55 PM 29.1 °F 25.4 °F 16.9 °F 60% 30.16 in 10.0 mi SSE 3.5 mph - N/A   Overcast
10:15 PM 30.2 °F 26.7 °F 17.2 °F 59% 30.15 in 10.0 mi SSE 3.5 mph - N/A   Overcast
10:35 PM 30.2 °F 26.7 °F 16.7 °F 57% 30.14 in 10.0 mi SSE 3.5 mph - N/A   Overcast
10:55 PM 30.2 °F 25.4 °F 18.0 °F 60% 30.13 in 10.0 mi SSE 4.6 mph - N/A   Overcast
11:15 PM 30.2 °F 26.7 °F 15.4 °F 54% 30.11 in 10.0 mi SSE 3.5 mph - N/A   Overcast
11:35 PM 30.2 °F 26.7 °F 14.9 °F 53% 30.11 in 10.0 mi SSE 3.5 mph - N/A   Overcast
11:55 PM 30.2 °F 26.7 °F 17.2 °F 59% 30.10 in 10.0 mi SSE 3.5 mph - N/A   Overcast